North Wilkesboro, NC

10:29 PM EST on February 19, 2017 (GMT -0500)
Wilkes County

Weather History for KUKF - July, 2012

Change the Weather History Date:

Friday, July 13, 2012

  Actual Average Record
Temperature  
Mean Temperature 70 °F -  
Max Temperature 77 °F 88 °F 98 °F (1993)
Min Temperature 64 °F 63 °F 53 °F (1963)
Cooling Degree Days 6    
Growing Degree Days 20 (Base 50)    
Moisture  
Dew Point 67 °F    
Average Humidity 92    
Maximum Humidity 100    
Minimum Humidity 74    
Precipitation  
Precipitation 0.47 in - - ()
Sea Level Pressure  
Sea Level Pressure 30.26 in    
Wind  
Wind Speed 1 mph (ENE)    
Max Wind Speed 9 mph    
Max Gust Speed -    
Visibility 9 miles    
Events Rain , Thunderstorm    
Averages and records for this station are not official NWS values.
T = Trace of Precipitation, MM = Missing Value Source: NWS Daily Summary

Daily Weather History Graph

Daily Weather History Graph

Search for Another Location

Airport or City:

Trip Planner

Search our weather history database for the weather conditions in past years. The results will help you decide how hot, cold, wet, or windy it might be!

Date:

Astronomy

Jul. 13, 2012 Rise Set
Actual Time 6:17 AM EDT 8:42 PM EDT
Civil Twilight 5:47 AM EDT 9:12 PM EDT
Nautical Twilight 5:11 AM EDT 9:48 PM EDT
Astronomical Twilight 4:31 AM EDT 10:28 PM EDT
Moon 1:51 AM EDT (7/13) 4:12 PM EDT (7/13)
Length of Visible Light 15h 24m
Length of Day
14h 24m
Waning Crescent, 26% of the Moon is Illuminated
Jul 13
Waning Crescent
Jul 19
New
Jul 26
First Quarter
Aug 1
Full
Aug 9
Last Quarter

Hourly Weather History & Observations

Time (EDT) Temp. Dew Point Humidity Pressure Visibility Wind Dir Wind Speed Gust Speed Precip Events Conditions
12:15 AM 68.0 °F 64.4 °F 88% 30.26 in 10.0 mi Calm Calm - N/A   Overcast
12:35 AM 68.0 °F 66.2 °F 94% 30.26 in 10.0 mi Calm Calm - N/A   Overcast
12:55 AM 68.0 °F 64.4 °F 88% 30.26 in 10.0 mi Calm Calm - N/A   Overcast
1:15 AM 66.2 °F 64.4 °F 94% 30.25 in 10.0 mi Calm Calm - N/A   Mostly Cloudy
1:35 AM 66.2 °F 64.4 °F 94% 30.25 in 7.0 mi Calm Calm - N/A   Mostly Cloudy
1:55 AM 66.2 °F 64.4 °F 94% 30.24 in 7.0 mi Calm Calm - N/A   Mostly Cloudy
2:15 AM 64.4 °F 64.4 °F 100% 30.24 in 5.0 mi Calm Calm - N/A   Scattered Clouds
2:35 AM 66.2 °F 64.4 °F 94% 30.24 in 7.0 mi Calm Calm - N/A   Scattered Clouds
2:55 AM 66.2 °F 64.4 °F 94% 30.23 in 7.0 mi Calm Calm - N/A Rain Light Rain
3:15 AM 64.4 °F 64.4 °F 100% 30.23 in 7.0 mi Calm Calm - N/A   Mostly Cloudy
3:35 AM 64.4 °F 64.4 °F 100% 30.23 in 10.0 mi Calm Calm - N/A   Overcast
3:55 AM 64.4 °F 64.4 °F 100% 30.23 in 7.0 mi Calm Calm - N/A   Overcast
4:15 AM 64.4 °F 64.4 °F 100% 30.23 in 10.0 mi Calm Calm - N/A   Mostly Cloudy
4:35 AM 64.4 °F 64.4 °F 100% 30.22 in 10.0 mi Calm Calm - N/A   Scattered Clouds
4:55 AM 64.4 °F 64.4 °F 100% 30.22 in 10.0 mi Calm Calm - N/A   Scattered Clouds
5:15 AM 64.4 °F 64.4 °F 100% 30.24 in 7.0 mi Calm Calm - N/A   Mostly Cloudy
5:35 AM 66.2 °F 64.4 °F 94% 30.24 in 7.0 mi Calm Calm - N/A   Overcast
5:55 AM 64.4 °F 64.4 °F 100% 30.25 in 7.0 mi Calm Calm - N/A   Overcast
6:15 AM 66.2 °F 64.4 °F 94% 30.26 in 10.0 mi Calm Calm - N/A   Overcast
6:35 AM 66.2 °F 64.4 °F 94% 30.26 in 10.0 mi Calm Calm - N/A   Overcast
6:55 AM 66.2 °F 64.4 °F 94% 30.26 in 10.0 mi Calm Calm - N/A   Overcast
7:15 AM 68.0 °F 64.4 °F 88% 30.27 in 10.0 mi Calm Calm - N/A   Overcast
7:35 AM 68.0 °F 64.4 °F 88% 30.27 in 10.0 mi NE 3.5 mph - N/A   Overcast
8:15 AM 68.0 °F 64.4 °F 88% 30.27 in 10.0 mi ENE 5.8 mph - N/A   Overcast
8:35 AM 68.0 °F 64.4 °F 88% 30.28 in 10.0 mi ENE 3.5 mph - N/A   Overcast
8:55 AM 69.8 °F 64.4 °F 83% 30.28 in 10.0 mi East 3.5 mph - N/A   Overcast
9:15 AM 69.8 °F 66.2 °F 88% 30.29 in 10.0 mi East 4.6 mph - N/A   Overcast
9:35 AM 69.8 °F 66.2 °F 88% 30.29 in 10.0 mi NE 4.6 mph - N/A   Overcast
9:55 AM 69.8 °F 66.2 °F 88% 30.29 in 10.0 mi East 3.5 mph - N/A   Overcast
10:15 AM 71.6 °F 68.0 °F 88% 30.29 in 10.0 mi SE 3.5 mph - N/A   Overcast
10:35 AM 71.6 °F 68.0 °F 88% 30.28 in 10.0 mi ESE 3.5 mph - N/A   Overcast
10:55 AM 71.6 °F 68.0 °F 88% 30.29 in 10.0 mi South 3.5 mph - N/A   Overcast
11:15 AM 71.6 °F 68.0 °F 88% 30.28 in 10.0 mi Calm Calm - N/A   Overcast
11:35 AM 73.4 °F 68.0 °F 83% 30.28 in 10.0 mi SE 4.6 mph - N/A   Mostly Cloudy
11:55 AM 73.4 °F 68.0 °F 83% 30.27 in 10.0 mi Calm Calm - N/A   Mostly Cloudy
12:15 PM 75.2 °F 68.0 °F 78% 30.27 in 10.0 mi Calm Calm - N/A   Overcast
12:35 PM 77.0 °F 68.0 °F 74% 30.27 in 10.0 mi Calm Calm - N/A   Overcast
12:55 PM 77.0 °F 68.0 °F 74% 30.26 in 10.0 mi Calm Calm - N/A   Overcast
1:15 PM 75.2 °F 69.8 °F 83% 30.26 in 10.0 mi Calm Calm - N/A   Overcast
1:35 PM 73.4 °F 71.6 °F 94% 30.26 in 5.0 mi Calm Calm - 0.03 in Rain Light Rain
1:55 PM 77.0 °F 69.8 °F 78% 30.25 in 10.0 mi Calm Calm - 0.03 in   Mostly Cloudy
2:15 PM 77.0 °F 69.8 °F 78% 30.25 in 10.0 mi NNE 3.5 mph - N/A   Mostly Cloudy
2:35 PM 77.0 °F 69.8 °F 78% 30.24 in 10.0 mi Calm Calm - N/A   Overcast
2:55 PM 75.2 °F 71.6 °F 89% 30.24 in 7.0 mi ESE 6.9 mph - 0.01 in Rain Light Rain
3:15 PM 73.4 °F 71.6 °F 94% 30.24 in 10.0 mi East 6.9 mph - N/A   Mostly Cloudy
3:35 PM 77.0 °F 68.0 °F 74% 30.23 in 10.0 mi NNE 4.6 mph - N/A   Scattered Clouds
3:55 PM 77.0 °F 69.8 °F 78% 30.23 in 10.0 mi ENE 5.8 mph - N/A   Scattered Clouds
4:15 PM 73.4 °F 71.6 °F 94% 30.24 in 7.0 mi SSE 9.2 mph - 0.01 in Rain Light Rain
4:35 PM 69.8 °F 68.0 °F 94% 30.25 in 1.5 mi Calm Calm - 0.34 in Rain , Thunderstorm Thunderstorms and Rain
4:55 PM 69.8 °F 68.0 °F 94% 30.25 in 7.0 mi Calm Calm - 0.38 in Rain , Thunderstorm Light Thunderstorms and Rain
5:15 PM 69.8 °F 69.8 °F 100% 30.25 in 10.0 mi NNE 3.5 mph - N/A Rain Rain
5:35 PM 69.8 °F 69.8 °F 100% 30.24 in 10.0 mi NNE 4.6 mph - 0.02 in Rain Light Rain
5:55 PM 71.6 °F 69.8 °F 94% 30.24 in 7.0 mi North 3.5 mph - 0.04 in Rain Rain
6:15 PM 71.6 °F 69.8 °F 94% 30.23 in 10.0 mi North 5.8 mph - 0.01 in Rain Light Rain
6:35 PM 71.6 °F 69.8 °F 94% 30.23 in 10.0 mi NNE 5.8 mph - 0.01 in   Mostly Cloudy
6:55 PM 71.6 °F 69.8 °F 94% 30.24 in 10.0 mi NNE 4.6 mph - 0.01 in   Overcast
7:15 PM 71.6 °F 69.8 °F 94% 30.24 in 10.0 mi Calm Calm - N/A Thunderstorm Overcast
7:35 PM 71.6 °F 69.8 °F 94% 30.24 in 10.0 mi Calm Calm - N/A Thunderstorm Overcast
7:55 PM 71.6 °F 69.8 °F 94% 30.25 in 10.0 mi Calm Calm - N/A   Overcast
8:15 PM 71.6 °F 69.8 °F 94% 30.25 in 10.0 mi Calm Calm - N/A Thunderstorm Overcast
8:35 PM 71.6 °F 69.8 °F 94% 30.25 in 10.0 mi Calm Calm - N/A   Overcast
8:55 PM 71.6 °F 69.8 °F 94% 30.25 in 10.0 mi ENE 3.5 mph - N/A   Overcast
9:15 PM 69.8 °F 69.8 °F 100% 30.26 in 10.0 mi ENE 4.6 mph - N/A   Overcast
9:35 PM 69.8 °F 69.8 °F 100% 30.26 in 10.0 mi ENE 3.5 mph - N/A Rain Light Rain
9:55 PM 69.8 °F 69.8 °F 100% 30.27 in 10.0 mi ENE 3.5 mph - N/A Rain Light Rain
10:15 PM 69.8 °F 69.8 °F 100% 30.27 in 10.0 mi Calm Calm - N/A   Overcast
10:35 PM 69.8 °F 69.8 °F 100% 30.28 in 10.0 mi Calm Calm - N/A   Overcast
10:55 PM 69.8 °F 69.8 °F 100% 30.28 in 10.0 mi East 3.5 mph - N/A   Overcast
11:15 PM 69.8 °F 69.8 °F 100% 30.28 in 7.0 mi Calm Calm - N/A   Overcast
11:35 PM 69.8 °F 69.8 °F 100% 30.28 in 5.0 mi Calm Calm - N/A   Overcast
11:55 PM 69.8 °F 69.8 °F 100% 30.28 in 2.5 mi Calm Calm - N/A   Overcast